Regional Weather Roundup
Issued by NWS Bismarck, ND

Home | Current Version | Previous Version | Text Only | Print | Product List | Glossary On
Versions: 1 2 3 4 5 6 7 8 9 10 11 12 13 14 15 16 17 18 19 20 21 22 23 24 25 26 27 28 29 30 31 32 33 34 35 36 37 38 39 40 41 42 43 44 45 46 47 48 49 50
000
ASUS43 KBIS 290720
RWRBIS

NWR BROADCAST TEXT
NATIONAL WEATHER SERVICE BISMARCK ND
200 AM CDT TUE JUL 29 2014

NOTE: "FAIR" INDICATES FEW OR NO CLOUDS BELOW 12,000 FEET WITH NO
SIGNIFICANT WEATHER AND/OR OBSTRUCTIONS TO VISIBILITY.


CITY           SKY/WX    TMP DP  RH WIND       PRES   REMARKS
WILLISTON      CLEAR     58  54  86 N3        30.22S
MINOT          CLEAR     56  53  90 CALM      30.22S
MINOT AFB      CLEAR     56  56  99 CALM      30.21F
BISMARCK       CLEAR     54  52  93 NE3       30.24S
DICKINSON      CLEAR     55  50  83 S8        30.24S
GARRISON         N/A     55  52  89 CALM      30.23S
HETTINGER ARPT CLEAR     57  50  77 SE6       30.27S
JAMESTOWN      CLEAR     55  51  86 CALM      30.22S
CARRINGTON     FAIR      52  52 100 W6        30.24S
CROSBY           N/A     57  57 100 S6        30.23S
HARVEY         FAIR      50  50 100 SW3       30.23S
HAZEN          FAIR      50  48  93 CALM      30.25R
LINTON         FAIR      48  48 100 E6        30.24S
MANDAN         FAIR      59  50  72 SE3       30.25S
RUGBY          FAIR      54  54 100 CALM      30.22S
STANLEY        PTSUNNY   57  57 100 SW3       30.24S
TIOGA          FAIR      54  54 100 CALM      30.27S
WATFORD CITY   FAIR      54  54 100 CALM      30.21S
$$

CITY           SKY/WX    TMP DP  RH WIND       PRES   REMARKS
GRAND FORKS    CLEAR     55  53  93 W7        30.18S
GRAND FORKS AF CLEAR     54  53  99 W2        30.19S
DEVILS LAKE    CLEAR     57  52  82 CALM      30.20S
FARGO          CLEAR     54  50  86 W3        30.19R
CANDO          FAIR      52  52 100 CALM      30.22F
CAVALIER       FAIR      55  54  94 CALM      30.19S
GRAFTON        FAIR      57  55  94 W5        30.18S
GWINNER        SUNNY     55  54  94 W7        30.23R
LANGDON        FAIR      48  48 100 W5        30.21S FOG
ROLLA          FAIR      50  50 100 W3        30.24S
WALHALLA         N/A     54  54 100 CALM        N/A
$$

CITY           SKY/WX    TMP DP  RH WIND       PRES   REMARKS
ABERDEEN       CLEAR     48  47  96 CALM      30.23S
MOBRIDGE       CLEAR     56  50  80 SE7       30.22S
BUFFALO          N/A     61  52  72 E6        30.21S
RAPID CITY     CLEAR     57  50  77 CALM      30.28S
GLASGOW        CLEAR     65  47  52 E9        30.20R
SIDNEY         CLEAR     57  50  77 CALM      30.23S
WOLF POINT     CLEAR     62  48  60 NE3       30.21R
GLENDIVE       CLEAR     63  52  67 S7        30.24S
MILES CITY     CLEAR     71  53  52 SE9       30.21R
BAKER          CLEAR     57  51  80 SE5       30.26S
$$

CITY           SKY/WX    TMP DP  RH WIND       PRES   REMARKS
BILLINGS       CLOUDY    73  46  38 N5        30.20S
GREAT FALLS    MOCLDY    69  48  47 SE3       30.18R
REGINA         CLEAR     61  59  94 SE2       30.22S
ESTEVAN        CLEAR     59  57  94 SE2       30.23S
$$




USA.gov is the U.S. government's official web portal to all federal, state and local government web resources and services.